393  
ASUS43 KGLD 170408  
RWRGLD  
 
GOODLAND FORECAST AREA HOURLY WEATHER ROUNDUP  
NATIONAL WEATHER SERVICE GOODLAND KS  
1000 PM MDT TUE JUL 16 2019  
   
..OFFICIAL OBSERVATIONS
 
 
 
CITY SKY/WX TMP DP RH WIND PRES REMARKS
 
GOODLAND KS PTCLDY 79 65 62 SE10 29.92S  
HILL CITY KS CLEAR 82 67 60 SE6 29.88R  
IMPERIAL NEB PTCLDY 78 63 59 E8 29.91R  
MCCOOK NEB CLEAR 78 67 68 SE5 29.88R  
AKRON CO PTCLDY 74 61 63 SE12 29.96R  
BURLINGTON CO CLOUDY 79 65 62 SE13 29.95S  
LIMON CO CLOUDY 77 55 46 S8G18 30.02R  

 
   
..UNOFFICIAL OBSERVATIONS
 
 
 
CITY SKY/WX TMP DP RH WIND PRES REMARKS
 
COLBY KS CLEAR 79 61 53 SE10 29.93R  
SHARON SPRINGS N/A 78 61 55 SE12 N/A  
KIT CARSON CO N/A 81 66 60 CALM N/A  
YUMA CO FAIR 73 34 23 SE9 29.93  

 
 
 
CLICK HERE TO GO TO PREVIOUS BULLETINS.

The Nexlab KS Page
The Nexlab CO Page
The Nexlab NE Page Main Text Page